Вернуться в каталог

FENGYUN 1C DEB

АктивенPO
NORAD 30301·DEBRIS·🇨🇳 China

Запущен May 10, 1999 с Taiyuan Satellite Launch Center

Loading…

Ближайшие Пролёты (ближайшие 24 часа)

TLE

СвежийSource: Space-Track

Эпоха: Sep 14, 2026, 05:33 UTC

1 30301U 99025ZN  26257.23159936  .00012263  00000-0  23738-2 0  9991
2 30301  98.6445  64.0580 0058590 162.7112  11.3404 14.62370404 12327

Отслеживайте FENGYUN 1C DEB в реальном времени с AllMySat

Download on the App Store